• In Österreich
  • Länderverzeichnis
  • Für 7 Tage
  • Wassertemperatur
  • Satellitenkarten
  • Wetterkarte
  • News
  • Widgets
  • user-avatar
    Anmelden

    Stündliche Wetter Acapulco

    Heute, 19 Januar, Freitag

    Zeit Temperatur Niederschläge Wind Luftdruck Luftfeuchtigkeit
    00:00 +25°C° 0 mm 2 m/S 758 mmHg 50%
    01:00 +25°C° 0 mm 2 m/S 758 mmHg 48%
    02:00 +24°C° 0 mm 2 m/S 757 mmHg 47%
    03:00 +24°C° 0 mm 2 m/S 757 mmHg 46%
    04:00 +24°C° 0 mm 2 m/S 757 mmHg 46%
    05:00 +24°C° 0 mm 2 m/S 757 mmHg 46%
    06:00 +25°C° 0 mm 2 m/S 758 mmHg 44%
    07:00 +27°C° 0 mm 1 m/S 758 mmHg 41%
    08:00 +28°C° 0 mm 1 m/S 758 mmHg 39%
    09:00 +31°C° 0 mm 1 m/S 758 mmHg 35%
    10:00 +33°C° 0 mm 1 m/S 757 mmHg 30%
    11:00 +36°C° 0 mm 1 m/S 757 mmHg 26%
    12:00 +37°C° 0 mm 2 m/S 756 mmHg 28%
    13:00 +36°C° 0 mm 2 m/S 756 mmHg 30%
    14:00 +36°C° 0 mm 3 m/S 755 mmHg 31%
    15:00 +34°C° 0 mm 2 m/S 755 mmHg 39%
    16:00 +31°C° 0 mm 2 m/S 755 mmHg 46%
    17:00 +30°C° 0 mm 2 m/S 755 mmHg 54%
    18:00 +28°C° 0 mm 2 m/S 755 mmHg 58%
    19:00 +27°C° 0 mm 1 m/S 756 mmHg 62%
    20:00 +25°C° 0 mm 1 m/S 756 mmHg 66%
    21:00 +25°C° 0 mm 1 m/S 756 mmHg 65%
    22:00 +25°C° 0 mm 1 m/S 757 mmHg 63%
    23:00 +25°C° 0 mm 1 m/S 757 mmHg 62%

    Morgen, 20 Januar, Samstag

    Zeit Temperatur Niederschläge Wind Luftdruck Luftfeuchtigkeit
    00:00 +25°C° 0 mm 1 m/S 757 mmHg 60%
    01:00 +24°C° 0 mm 1 m/S 756 mmHg 59%
    02:00 +24°C° 0 mm 2 m/S 756 mmHg 57%
    03:00 +24°C° 0 mm 2 m/S 756 mmHg 56%
    04:00 +24°C° 0 mm 2 m/S 756 mmHg 55%
    05:00 +24°C° 0 mm 2 m/S 756 mmHg 53%
    06:00 +26°C° 0 mm 2 m/S 757 mmHg 49%
    07:00 +27°C° 0 mm 1 m/S 757 mmHg 46%
    08:00 +29°C° 0 mm 1 m/S 757 mmHg 42%
    09:00 +31°C° 0 mm 1 m/S 757 mmHg 38%
    10:00 +34°C° 0 mm 1 m/S 757 mmHg 33%
    11:00 +36°C° 0 mm 1 m/S 757 mmHg 29%
    12:00 +37°C° 0 mm 2 m/S 756 mmHg 31%
    13:00 +36°C° 0 mm 2 m/S 755 mmHg 33%
    14:00 +36°C° 0 mm 3 m/S 755 mmHg 34%
    15:00 +34°C° 0 mm 3 m/S 754 mmHg 41%
    16:00 +33°C° 0 mm 3 m/S 754 mmHg 47%
    17:00 +30°C° 0 mm 3 m/S 754 mmHg 53%
    18:00 +29°C° 0 mm 3 m/S 755 mmHg 57%
    19:00 +27°C° 0 mm 3 m/S 755 mmHg 60%
    20:00 +26°C° 0 mm 3 m/S 756 mmHg 63%
    21:00 +26°C° 0 mm 3 m/S 756 mmHg 61%
    22:00 +26°C° 0 mm 3 m/S 756 mmHg 59%
    23:00 +26°C° 0 mm 3 m/S 756 mmHg 57%

    übermorgen, 21 Januar, Sonntag

    Zeit Temperatur Niederschläge Wind Luftdruck Luftfeuchtigkeit
    00:00 +25°C° 0 mm 2 m/S 756 mmHg 56%
    01:00 +25°C° 0 mm 2 m/S 756 mmHg 55%
    02:00 +25°C° 0 mm 2 m/S 755 mmHg 54%
    03:00 +25°C° 0 mm 2 m/S 755 mmHg 54%
    04:00 +25°C° 0 mm 2 m/S 755 mmHg 54%
    05:00 +24°C° 0 mm 2 m/S 755 mmHg 54%
    06:00 +26°C° 0 mm 2 m/S 756 mmHg 50%
    07:00 +28°C° 0 mm 2 m/S 756 mmHg 47%
    08:00 +29°C° 0 mm 2 m/S 756 mmHg 43%
    09:00 +32°C° 0 mm 2 m/S 756 mmHg 38%
    10:00 +35°C° 0 mm 2 m/S 756 mmHg 33%
    11:00 +38°C° 0 mm 2 m/S 756 mmHg 29%
    12:00 +38°C° 0 mm 2 m/S 755 mmHg 30%
    13:00 +37°C° 0 mm 3 m/S 754 mmHg 31%
    14:00 +37°C° 0 mm 3 m/S 753 mmHg 33%
    15:00 +35°C° 0 mm 3 m/S 753 mmHg 40%
    16:00 +32°C° 0 mm 2 m/S 753 mmHg 48%
    17:00 +30°C° 0 mm 2 m/S 753 mmHg 56%
    18:00 +29°C° 0 mm 2 m/S 753 mmHg 60%
    19:00 +28°C° 0 mm 2 m/S 754 mmHg 64%
    20:00 +26°C° 0 mm 2 m/S 755 mmHg 67%
    21:00 +26°C° 0 mm 2 m/S 755 mmHg 66%
    22:00 +26°C° 0 mm 2 m/S 755 mmHg 64%
    23:00 +26°C° 0 mm 1 m/S 755 mmHg 62%

    22 Januar, Montag

    Zeit Temperatur Niederschläge Wind Luftdruck Luftfeuchtigkeit
    00:00 +26°C° 0 mm 1 m/S 755 mmHg 61%
    01:00 +25°C° 0 mm 1 m/S 754 mmHg 59%
    02:00 +25°C° 0 mm 1 m/S 754 mmHg 58%
    03:00 +25°C° 0 mm 2 m/S 754 mmHg 57%
    04:00 +25°C° 0 mm 2 m/S 754 mmHg 57%
    05:00 +25°C° 0 mm 2 m/S 754 mmHg 56%
    06:00 +26°C° 0 mm 2 m/S 754 mmHg 52%
    07:00 +28°C° 0 mm 2 m/S 755 mmHg 48%
    08:00 +30°C° 0 mm 2 m/S 755 mmHg 45%
    09:00 +32°C° 0 mm 2 m/S 755 mmHg 41%
    10:00 +35°C° 0 mm 2 m/S 755 mmHg 38%
    11:00 +37°C° 0 mm 2 m/S 755 mmHg 34%
    12:00 +36°C° 0 mm 2 m/S 754 mmHg 37%
    13:00 +36°C° 0 mm 2 m/S 753 mmHg 39%
    14:00 +36°C° 0 mm 3 m/S 752 mmHg 41%
    15:00 +34°C° 0 mm 2 m/S 752 mmHg 49%
    16:00 +32°C° 0 mm 2 m/S 752 mmHg 57%
    17:00 +30°C° 0 mm 1 m/S 752 mmHg 65%
    18:00 +29°C° 0 mm 1 m/S 753 mmHg 71%
    19:00 +27°C° 0 mm 1 m/S 754 mmHg 78%
    20:00 +26°C° 0 mm 1 m/S 754 mmHg 84%
    21:00 +26°C° 0 mm 1 m/S 754 mmHg 83%
    22:00 +26°C° 0 mm 1 m/S 755 mmHg 82%
    23:00 +26°C° 0 mm 2 m/S 755 mmHg 81%

    23 Januar, Dienstag

    Zeit Temperatur Niederschläge Wind Luftdruck Luftfeuchtigkeit
    00:00 +26°C° 0 mm 2 m/S 755 mmHg 79%
    01:00 +25°C° 0 mm 2 m/S 754 mmHg 78%
    02:00 +25°C° 0 mm 2 m/S 754 mmHg 76%
    03:00 +25°C° 0 mm 2 m/S 754 mmHg 73%
    04:00 +25°C° 0 mm 2 m/S 754 mmHg 71%
    05:00 +25°C° 0 mm 2 m/S 754 mmHg 68%
    06:00 +27°C° 0 mm 1 m/S 755 mmHg 62%
    07:00 +28°C° 0 mm 1 m/S 755 mmHg 55%
    08:00 +30°C° 0 mm 1 m/S 756 mmHg 49%
    09:00 +32°C° 0 mm 1 m/S 756 mmHg 44%
    10:00 +34°C° 0 mm 1 m/S 755 mmHg 40%
    11:00 +37°C° 0 mm 1 m/S 755 mmHg 35%
    12:00 +37°C° 0 mm 2 m/S 754 mmHg 38%
    13:00 +36°C° 0 mm 3 m/S 753 mmHg 41%
    14:00 +36°C° 0 mm 3 m/S 753 mmHg 44%
    15:00 +34°C° 0,1 mm 3 m/S 753 mmHg 51%
    16:00 +33°C° 0,1 mm 3 m/S 753 mmHg 57%
    17:00 +31°C° 0,1 mm 3 m/S 753 mmHg 64%
    18:00 +29°C° 0,1 mm 3 m/S 753 mmHg 70%
    19:00 +28°C° 0,1 mm 3 m/S 754 mmHg 75%
    20:00 +26°C° 0,1 mm 2 m/S 755 mmHg 81%
    21:00 +26°C° 0 mm 2 m/S 755 mmHg 79%
    22:00 +26°C° 0 mm 2 m/S 755 mmHg 78%
    23:00 +26°C° 0 mm 2 m/S 755 mmHg 77%

    24 Januar, Mittwoch

    Zeit Temperatur Niederschläge Wind Luftdruck Luftfeuchtigkeit
    00:00 +26°C° 0 mm 2 m/S 755 mmHg 75%
    01:00 +26°C° 0 mm 1 m/S 755 mmHg 74%
    02:00 +25°C° 0 mm 1 m/S 754 mmHg 72%
    03:00 +25°C° 0 mm 1 m/S 754 mmHg 71%
    04:00 +25°C° 0 mm 1 m/S 754 mmHg 70%
    05:00 +25°C° 0 mm 1 m/S 755 mmHg 68%
    06:00 +27°C° 0 mm 1 m/S 755 mmHg 62%
    07:00 +28°C° 0 mm 1 m/S 755 mmHg 56%
    08:00 +30°C° 0 mm 1 m/S 756 mmHg 49%
    09:00 +32°C° 0 mm 1 m/S 755 mmHg 44%
    10:00 +35°C° 0 mm 1 m/S 755 mmHg 40%
    11:00 +37°C° 0 mm 1 m/S 755 mmHg 35%
    12:00 +37°C° 0 mm 2 m/S 754 mmHg 38%
    13:00 +36°C° 0 mm 3 m/S 753 mmHg 42%
    14:00 +36°C° 0 mm 4 m/S 752 mmHg 45%
    15:00 +34°C° 0,1 mm 3 m/S 752 mmHg 52%
    16:00 +33°C° 0,1 mm 3 m/S 753 mmHg 60%
    17:00 +30°C° 0,1 mm 3 m/S 753 mmHg 67%
    18:00 +29°C° 0 mm 2 m/S 753 mmHg 74%
    19:00 +28°C° 0 mm 2 m/S 754 mmHg 80%
    20:00 +26°C° 0 mm 1 m/S 754 mmHg 87%
    21:00 +26°C° 0 mm 1 m/S 755 mmHg 86%
    22:00 +26°C° 0 mm 1 m/S 755 mmHg 86%
    23:00 +26°C° 0 mm 1 m/S 755 mmHg 85%
    Mehr zeigen